Weather in San Vincenzo

Italy     43°06′01″N   10°32′21″E
temp.,
°C
wind,
m/s
gust,
m/s
humid.,
%
clouds,
%
prec.,
mm/h
press.,
hPa
HPBL,
m
8 march, mon
mon801:00+12e468298 1.1 1017390
04:00+12e448298 0.4 1015232
07:00+12e448198 0.4 1014205
10:00+13ese4678100 0.1 1015506
13:00+12ese7884100 2.0 1014593
16:00+12ese6888100 5.1 1013459
19:00+12e71082100 7.4 1013447
22:00+11e91085100 3.0 1014331
9 march, tue
tue901:00+11ne6980100 3.6 1013569
04:00+11ne61075100 0.0 1012715
07:00+11ne6975100 0.0 1012586
10:00+12nne5771100 0.0 1013787
13:00+13nne466499 0.0 10131185
16:00+13nne556459 0.1 10121105
19:00+11ne566739 0.2 1012532
22:00+10nne56710 0.0 1014260
10 march, wed
wed1001:00+9nne811700 0.0 1013525
04:00+9ne68710 0.0 1014367
07:00+9ne8136120 0.0 1015612
10:00+11nne913551 0.0 10171122
13:00+13n810510 0.0 10191458
16:00+13n78510 0.0 10181445
19:00+12nne57510 0.0 1020571
22:00+10ne22520 0.0 1022144
11 march, thu
thu1101:00+10nne22460 0.0 1023145
04:00+10ne22430 0.0 1023113
07:00+10ene22440 0.0 1023111
10:00+11s11410 0.0 1024168
13:00+12ssw225318 0.0 1024408
16:00+12ssw235298 0.0 1022576
19:00+13s335199 0.0 1022610
22:00+12se5662100 0.0 1022460
12 march, fri
fri1201:00+11ese5663100 0.0 1021275
04:00+11ese6876100 0.0 1019306
07:00+11ese5785100 0.0 1019294
10:00+14se7979100 0.0 1019593
13:00+14sse7882100 0.0 1018539
16:00+14sse6774100 0.0 1016414
19:00+14sse568499 0.6 1015186
22:00+13ese448380 0.9 1015118